| time (UTC) | temp F | wind direction | speed MPH | gust MPH | rain 1hr in | rain 24hr in | rain mn in | humidity % | barometer mb |
| 20260505153034 | 59 | 279 | 7.0 | 15.0 | 0.00 | 2.56 | 0.00 | 74 | 1015.8 |
| 20260505151536 | 58 | 264 | 8.0 | 17.0 | 0.00 | 2.56 | 0.00 | 76 | 1015.6 |
| 20260505150108 | 58 | 276 | 8.0 | 17.0 | 0.00 | 2.56 | 0.00 | 76 | 1015.6 |
| 20260505140109 | 56 | 281 | 7.0 | 14.0 | 0.00 | 2.56 | 0.00 | 80 | 1015.2 |
| 20260505130111 | 56 | 281 | 8.0 | 16.0 | 0.00 | 2.56 | 0.00 | 80 | 1014.7 |
| 20260505124535 | 56 | 281 | 8.0 | 17.0 | 0.00 | 2.56 | 0.00 | 80 | 1014.6 |
| 20260505123031 | 57 | 282 | 9.0 | 18.0 | 0.00 | 2.56 | 0.00 | 78 | 1014.5 |
| 20260505121532 | 57 | 284 | 8.0 | 18.0 | 0.00 | 2.56 | 0.00 | 78 | 1014.4 |
| 20260505120035 | 57 | 287 | 8.0 | 18.0 | 0.00 | 2.56 | 0.00 | 78 | 1014.3 |
| 20260505114534 | 57 | 285 | 7.0 | 15.0 | 0.00 | 2.56 | 0.00 | 78 | 1014.2 |
| 20260505113033 | 57 | 289 | 8.0 | 18.0 | 0.00 | 2.56 | 0.00 | 77 | 1014.2 |
| 20260505111536 | 58 | 286 | 9.0 | 23.0 | 0.00 | 2.56 | 0.00 | 77 | 1014.1 |
| 20260505101608 | 58 | 284 | 9.0 | 19.0 | 0.00 | 2.56 | 0.00 | 76 | 1013.7 |
| 20260505094642 | 60 | 280 | 9.0 | 19.0 | 0.00 | 2.56 | 0.00 | 74 | 1013.5 |
| 20260505093034 | 60 | 282 | 12.0 | 25.0 | 0.00 | 2.56 | 0.00 | 74 | 1013.3 |
| 20260505091535 | 61 | 279 | 9.0 | 24.0 | 0.00 | 2.56 | 0.00 | 73 | 1013.3 |
| 20260505090035 | 61 | 273 | 8.0 | 17.0 | 0.00 | 2.56 | 0.00 | 72 | 1013.1 |
| 20260505084532 | 62 | 279 | 8.0 | 17.0 | 0.00 | 2.56 | 0.00 | 71 | 1013.0 |
| 20260505083033 | 62 | 273 | 9.0 | 17.0 | 0.00 | 2.56 | 0.00 | 71 | 1012.9 |
| 20260505081535 | 63 | 276 | 8.0 | 19.0 | 0.00 | 2.56 | 0.00 | 71 | 1012.8 |
| 20260505080035 | 63 | 282 | 9.0 | 17.0 | 0.00 | 2.56 | 0.00 | 71 | 1012.8 |
| 20260505074535 | 64 | 275 | 10.0 | 19.0 | 0.00 | 2.56 | 0.00 | 71 | 1012.6 |
| 20260505073109 | 64 | 276 | 7.0 | 18.0 | 0.00 | 2.56 | 0.00 | 70 | 1012.6 |
| 20260505071537 | 65 | 279 | 9.0 | 21.0 | 0.00 | 2.56 | 0.00 | 69 | 1012.4 |
| 20260505070111 | 66 | 284 | 10.0 | 18.0 | 0.00 | 2.56 | 0.00 | 68 | 1012.2 |
| 20260505064533 | 66 | 284 | 8.0 | 15.0 | 0.00 | 2.56 | 2.56 | 65 | 1012.1 |
| 20260505063034 | 66 | 285 | 8.0 | 18.0 | 0.00 | 2.56 | 2.56 | 65 | 1012.0 |
| 20260505061535 | 67 | 282 | 6.0 | 12.0 | 0.00 | 2.56 | 2.56 | 65 | 1012.0 |
| 20260505054536 | 67 | 266 | 5.0 | 12.0 | 0.00 | 2.56 | 2.56 | 62 | 1011.9 |
| 20260505053037 | 68 | 274 | 5.0 | 15.0 | 0.00 | 2.56 | 2.56 | 61 | 1011.8 |
| 20260505051536 | 68 | 276 | 6.0 | 14.0 | 0.00 | 2.56 | 2.56 | 59 | 1011.7 |
| 20260505041610 | 69 | 277 | 5.0 | 11.0 | 0.00 | 2.56 | 2.56 | 55 | 1011.0 |
| 20260505040050 | 70 | 280 | 5.0 | 14.0 | 0.00 | 2.56 | 2.56 | 55 | 1010.8 |
| 20260505034534 | 70 | 280 | 5.0 | 11.0 | 2.56 | 2.56 | 2.56 | 54 | 1010.6 |
| 20260505033032 | 70 | 282 | 5.0 | 16.0 | 2.56 | 2.56 | 2.56 | 53 | 1010.4 |
| 20260505030038 | 72 | 273 | 8.0 | 584.0 | 2.56 | 2.56 | 0.00 | 50 | 1007.0 |
| 20260505024535 | 72 | 265 | 6.0 | 14.0 | 0.00 | 0.00 | 0.00 | 52 | 1009.8 |
| 20260505023036 | 73 | 263 | 7.0 | 19.0 | 0.00 | 0.00 | 0.00 | 52 | 1009.8 |
| 20260505021535 | 73 | 238 | 3.0 | 9.0 | 0.00 | 0.00 | 0.00 | 52 | 1009.8 |
| 20260505020036 | 73 | 234 | 5.0 | 14.0 | 0.00 | 0.00 | 0.00 | 51 | 1009.8 |
| 20260505014537 | 74 | 245 | 5.0 | 12.0 | 0.00 | 0.00 | 0.00 | 51 | 1009.8 |
| 20260505013036 | 74 | 238 | 7.0 | 17.0 | 0.00 | 0.00 | 0.00 | 50 | 1009.6 |
| 20260505004653 | 75 | 265 | 8.0 | 21.0 | 0.00 | 0.00 | 0.00 | 48 | 1009.6 |
| 20260505004642 | 75 | 275 | 9.0 | 20.0 | 0.00 | 0.00 | 0.00 | 48 | 1009.4 |
| 20260505000041 | 75 | 278 | 11.0 | 23.0 | 0.00 | 0.00 | 0.00 | 47 | 1009.2 |
| 20260504234533 | 75 | 276 | 10.0 | 24.0 | 0.00 | 0.00 | 0.00 | 47 | 1009.1 |
| 20260504233149 | 76 | 288 | 11.0 | 22.0 | 0.00 | 0.00 | 0.00 | 46 | 1009.1 |
| 20260504231531 | 76 | 286 | 11.0 | 25.0 | 0.00 | 0.00 | 0.00 | 46 | 1009.1 |
| 20260504230037 | 76 | 288 | 11.0 | 21.0 | 0.00 | 0.00 | 0.00 | 46 | 1009.2 |
| 20260504223035 | 76 | 296 | 10.0 | 22.0 | 0.00 | 0.00 | 0.00 | 47 | 1009.6 |
| 20260504220036 | 76 | 292 | 11.0 | 21.0 | 0.00 | 0.00 | 0.00 | 47 | 1009.8 |
| 20260504210037 | 76 | 294 | 6.0 | 18.0 | 0.00 | 0.00 | 0.00 | 46 | 1010.6 |
| 20260504200037 | 76 | 299 | 4.0 | 14.0 | 0.00 | 0.00 | 0.00 | 45 | 1011.2 |
| 20260504194533 | 75 | 294 | 3.0 | 13.0 | 0.00 | 0.00 | 0.00 | 46 | 1011.3 |
| 20260504193033 | 74 | 294 | 4.0 | 15.0 | 0.00 | 0.00 | 0.00 | 47 | 1011.4 |
| 20260504191534 | 75 | 263 | 6.0 | 12.0 | 0.00 | 0.00 | 0.00 | 47 | 1011.5 |
| 20260504184532 | 73 | 280 | 4.0 | 13.0 | 0.00 | 0.00 | 0.00 | 49 | 1011.8 |
| 20260504181535 | 71 | 292 | 8.0 | 17.0 | 0.00 | 0.00 | 0.00 | 51 | 1011.8 |
| 20260504180035 | 71 | 284 | 8.0 | 13.0 | 0.00 | 0.00 | 0.00 | 52 | 1011.9 |
| 20260504174537 | 69 | 302 | 9.0 | 18.0 | 0.00 | 0.00 | 0.00 | 54 | 1011.8 |
| 20260504171534 | 69 | 295 | 10.0 | 21.0 | 0.00 | 0.00 | 0.00 | 54 | 1011.8 |